This is the latest recevied weather packets stored in our database for station/object SQ5JP-4. If no packets are shown the sender has not sent any weather packets the latest 10 day(s).
| Time | Temp. | Humidity | Pressure | Rain* | Wind** | Luminosity | Snow |
|---|---|---|---|---|---|---|---|
| 1788444239 | 26.67° C | 82% | 998.7 hPa | - | - | - | - |
| 1788443339 | 28.33° C | 93% | 998.7 hPa | - | - | - | - |
| 1788442439 | 26.11° C | 64% | 998.9 hPa | - | - | - | - |
| 1788440641 | 27.22° C | 73% | 999.1 hPa | - | - | - | - |
| 1788439741 | 23.33° C | 92% | 999.2 hPa | - | - | - | - |
| 1788438840 | 23.33° C | 77% | 999.4 hPa | - | - | - | - |
| 1788437940 | 24.44° C | 75% | 999.4 hPa | - | - | - | - |
| 1788437040 | 24.44° C | 100% | 999.4 hPa | - | - | - | - |
| 1788435240 | 23.33° C | 94% | 999.7 hPa | - | - | - | - |
| 1788434340 | 22.78° C | 93% | 999.9 hPa | - | - | - | - |
| 1788433440 | 21.11° C | 100% | 1000.1 hPa | - | - | - | - |
| 1788432540 | 22.78° C | 100% | 1000.1 hPa | - | - | - | - |
| 1788431640 | 22.78° C | 100% | 1000.2 hPa | - | - | - | - |
| 1788430740 | 21.67° C | 100% | 1000.3 hPa | - | - | - | - |
| 1788429841 | 20° C | 100% | 1000.4 hPa | - | - | - | - |
| 1788428039 | 22.78° C | 100% | 1000.6 hPa | - | - | - | - |
| 1788427139 | 21.11° C | 100% | 1000.8 hPa | - | - | - | - |
| 1788426239 | 20° C | 100% | 1000.8 hPa | - | - | - | - |
| 1788425339 | 20° C | 100% | 1000.8 hPa | - | - | - | - |
| 1788424439 | 18.89° C | 100% | 1000.8 hPa | - | - | - | - |
| 1788423539 | 19.44° C | 100% | 1000.7 hPa | - | - | - | - |
| 1788422638 | 18.89° C | 100% | 1000.6 hPa | - | - | - | - |
| 1788421738 | 18.33° C | 100% | 1000.2 hPa | - | - | - | - |
| 1788420838 | 17.78° C | 100% | 999.9 hPa | - | - | - | - |
| 1788419042 | 17.22° C | 100% | 999.2 hPa | - | - | - | - |
* Rain since midnight (hover to see other rain measurements)
** Current wind speed in m/s (hover to see current wind gust speed)